Home > Weather > Leonding > Past weeks

Flag for Austria Past Weather in Leonding, Upper Austria, Austria — Yesterday and Last 2 Weeks

Now
77 °F

Broken clouds.


Feels Like: 79 °F
Forecast: 56 / 67 °F
Wind: 12 mph from East

Location: Linz / Hoersching-Flughafen

Current Time: May 29, 2016 at 7:22:53 PM

Latest Report: May 29, 2016 at 6:50 PM


Visibility: N/A

Pressure: 29.59 "Hg

Humidity: 65%

Dew Point: 64 °F

Location of LeondingLocation

Past Weather in Leonding — Graph

°F

Leonding Temperature Yesterday

Maximum temperature yesterday: 81 °F (at 3:50 PM)
Minimum temperature yesterday: 59 °F (at 5:20 AM)
Average temperature yesterday: 68 °F

High & Low Weather Summary for the Past Weeks

 TemperatureHumidityPressure
High82 °F (May 22, 3:20 PM)100% (May 21, 3:20 AM)30.18 "Hg (May 21, 3:20 AM)
Low41 °F (May 16, 12:20 AM)29% (May 21, 6:20 PM)29.59 "Hg (May 29, 5:50 PM)
Average57 °F75%29.96 "Hg
* Reported May 14 5:20 PM — May 29 5:50 PM, Leonding, Weather by CustomWeather, © 2016

Note: Actual official high and low records may vary slightly from our data, if they occured in-between our weather recording intervals... More about our weather records

Advertising

Leonding Weather History for the Previous 24 Hours

Scroll right to see more
 ConditionsComfort  
Time TempWeatherWind HumidityBarometerVisibility
5:50 PM
Sun, May 29
77 °FScattered clouds.9 mph69%29.59 "HgN/A
5:20 PM75 °FScattered clouds.16 mph69%29.62 "HgN/A
4:50 PM75 °FScattered clouds.14 mph69%29.62 "HgN/A
4:20 PM75 °FPartly sunny.14 mph69%29.62 "HgN/A
3:50 PM73 °FBroken clouds.12 mph78%29.65 "HgN/A
3:20 PM73 °FBroken clouds.10 mph69%29.65 "HgN/A
2:50 PM73 °FPartly sunny.10 mph74%29.68 "HgN/A
2:20 PM75 °FScattered clouds.10 mph69%29.68 "HgN/A
1:50 PM73 °FScattered clouds.5 mph74%29.68 "HgN/A
1:20 PM73 °FScattered clouds.7 mph74%29.68 "HgN/A
12:50 PM72 °FScattered clouds.7 mph73%29.71 "HgN/A
12:20 PM70 °FScattered clouds.9 mph78%29.71 "HgN/A
11:50 AM70 °FScattered clouds.7 mph78%29.71 "HgN/A
11:20 AM70 °FScattered clouds.6 mph78%29.71 "HgN/A
10:50 AM68 °FScattered clouds.8 mph83%29.74 "HgN/A
10:20 AM68 °FPartly sunny.8 mph78%29.74 "HgN/A
9:50 AM64 °FPartly sunny.6 mph88%29.74 "HgN/A
9:20 AM63 °FPartly sunny.7 mph94%29.74 "HgN/A
8:50 AM63 °FBroken clouds.9 mph94%29.74 "HgN/A
8:20 AM61 °FPartly sunny.9 mph94%29.74 "Hg5 mi
7:50 AM63 °FScattered clouds.8 mph88%29.74 "HgN/A
7:20 AM63 °FFog.3 mph94%29.74 "Hg4 mi
6:50 AM61 °FFog.2 mph100%29.77 "Hg2 mi
6:20 AM59 °FRain. Cloudy.7 mph100%29.77 "Hg1 mi
5:50 AM59 °FFog.10 mph100%29.77 "Hg1 mi
5:20 AM57 °FFog.7 mph100%29.77 "Hg2 mi
4:50 AM57 °FFog.3 mph100%29.77 "Hg2 mi
4:20 AM57 °FFog.5 mph100%29.80 "Hg3 mi
3:50 AM57 °FPassing clouds.3 mph100%29.80 "Hg4 mi
3:20 AM57 °FFog.6 mph100%29.80 "Hg4 mi
2:50 AM57 °FFog.2 mph100%29.80 "Hg0 mi
2:20 AM57 °FCool.5 mph100%29.80 "Hg1 mi
1:50 AM59 °FFog.2 mph100%29.80 "Hg4 mi
1:20 AM59 °FFog.3 mph100%29.80 "Hg4 mi
12:50 AM61 °FFog.2 mph94%29.83 "Hg5 mi
12:20 AM61 °FPassing clouds.2 mph94%29.83 "Hg5 mi
11:50 PM
Sat, May 28
61 °FPassing clouds.2 mph94%29.86 "HgN/A
11:20 PM61 °FPassing clouds.5 mph94%29.86 "HgN/A
10:50 PM61 °FClear.6 mph100%29.89 "Hg10 mi
10:20 PM61 °FPassing clouds.2 mph94%29.89 "HgN/A
9:50 PM63 °FThundershowers. Partly sunny.9 mph94%29.89 "HgN/A
9:20 PM61 °FThunderstorms. Partly sunny.8 mph94%29.86 "HgN/A
8:50 PM61 °FStrong thunderstorms. Partly sunny.15 mph100%29.86 "Hg2 mi
7:50 PM77 °FPartly sunny.9 mph57%29.80 "HgN/A
7:20 PM77 °FScattered clouds.6 mph57%29.80 "HgN/A
Weather by CustomWeather, © 2016

See weather overviewHow to use our weather pages